Time,TemperatureF,DewpointF,PressureIn,WindDirection,WindDirectionDegrees,WindSpeedMPH,WindSpeedGustMPH,Humidity,HourlyPrecipIn,Conditions,Clouds,dailyrainin,SoftwareType,DateUTC
2013-11-03 00:23:00,35.0,33.0,30.13,NW,311,0.0,0.0,94,0.00,,,0.00,,2013-11-03 05:23:00,
2013-11-03 00:43:00,36.0,34.0,30.13,NW,311,0.0,0.0,94,0.00,,,0.00,,2013-11-03 05:43:00,
2013-11-03 00:53:00,36.0,34.0,30.13,NW,311,0.0,0.0,94,0.00,,,0.00,,2013-11-03 05:53:00,
2013-11-03 01:12:00,35.0,33.0,30.13,NW,311,0.0,0.0,93,0.00,,,0.00,,2013-11-03 06:12:00,
2013-11-03 01:23:00,35.0,33.0,30.14,NW,311,0.0,0.0,93,0.00,,,0.00,,2013-11-03 06:23:00,
2013-11-03 01:43:00,34.0,32.0,30.14,NW,311,0.0,0.0,93,0.00,,,0.00,,2013-11-03 06:43:00,
2013-11-03 01:52:00,33.0,31.0,30.14,NW,311,0.0,0.0,92,0.00,,,0.00,,2013-11-03 06:52:00,
2013-11-03 01:22:00,33.0,31.0,30.15,NW,311,0.0,0.0,94,0.00,,,0.00,,2013-11-03 07:22:00,
2013-11-03 01:42:00,33.0,31.0,30.16,NW,311,0.0,0.0,94,0.00,,,0.00,,2013-11-03 07:42:00,
2013-11-03 01:52:00,33.0,31.0,30.16,NW,311,0.0,0.0,94,0.00,,,0.00,,2013-11-03 07:52:00,
2013-11-03 02:21:00,33.0,31.0,30.17,NW,311,0.0,0.0,93,0.00,,,0.00,,2013-11-03 08:21:00,
2013-11-03 02:42:00,33.0,31.0,30.18,NW,311,0.0,0.0,93,0.00,,,0.00,,2013-11-03 08:42:00,
2013-11-03 02:52:00,33.0,31.0,30.19,NW,311,0.0,0.0,93,0.00,,,0.00,,2013-11-03 08:52:00,
2013-11-03 03:12:00,33.0,31.0,30.19,NW,311,0.0,0.0,93,0.00,,,0.00,,2013-11-03 09:12:00,
2013-11-03 03:22:00,33.0,31.0,30.19,NW,311,0.0,0.0,93,0.00,,,0.00,,2013-11-03 09:22:00,
2013-11-03 03:53:00,32.0,30.0,30.20,NW,311,0.0,0.0,93,0.00,,,0.00,,2013-11-03 09:53:00,
2013-11-03 04:23:00,31.0,29.0,30.21,NW,311,0.0,0.0,93,0.00,,,0.00,,2013-11-03 10:23:00,
2013-11-03 04:52:00,32.0,30.0,30.22,NW,311,0.0,0.0,94,0.00,,,0.00,,2013-11-03 10:52:00,
2013-11-03 05:22:00,32.0,30.0,30.23,NW,311,0.0,0.0,94,0.00,,,0.00,,2013-11-03 11:22:00,
2013-11-03 05:43:00,32.0,30.0,30.23,NW,311,0.0,0.0,94,0.00,,,0.00,,2013-11-03 11:43:00,
2013-11-03 05:52:00,32.0,30.0,30.24,NW,311,0.0,0.0,94,0.00,,,0.00,,2013-11-03 11:52:00,
2013-11-03 06:22:00,31.0,29.0,30.25,NW,311,0.0,0.0,94,0.00,,,0.00,,2013-11-03 12:22:00,
2013-11-03 06:52:00,32.0,30.0,30.26,NW,311,0.0,0.0,94,0.00,,,0.00,,2013-11-03 12:52:00,
2013-11-03 07:21:00,32.0,31.0,30.27,NW,311,0.0,0.0,95,0.00,,,0.00,,2013-11-03 13:21:00,
2013-11-03 07:42:00,32.0,30.0,30.27,NW,311,0.0,0.0,94,0.00,,,0.00,,2013-11-03 13:42:00,
2013-11-03 07:52:00,33.0,32.0,30.28,NW,311,0.0,0.0,95,0.00,,,0.00,,2013-11-03 13:52:00,
2013-11-03 08:22:00,36.0,35.0,30.29,NW,311,0.0,0.0,95,0.00,,,0.00,,2013-11-03 14:22:00,
2013-11-03 08:52:00,39.0,37.0,30.30,NW,311,0.0,0.0,94,0.00,,,0.00,,2013-11-03 14:52:00,
2013-11-03 09:22:00,42.0,40.0,30.31,NW,311,0.0,0.0,92,0.00,,,0.00,,2013-11-03 15:22:00,
2013-11-03 09:43:00,43.0,40.0,30.31,NW,311,0.0,0.0,88,0.00,,,0.00,,2013-11-03 15:43:00,
2013-11-03 09:53:00,45.0,40.0,30.31,NW,311,0.0,0.0,83,0.00,,,0.00,,2013-11-03 15:53:00,
2013-11-03 10:23:00,47.0,40.0,30.29,ESE,119,0.0,0.0,76,0.00,,,0.00,,2013-11-03 16:23:00,
2013-11-03 10:43:00,48.0,40.0,30.30,ESE,123,0.0,0.0,74,0.00,,,0.00,,2013-11-03 16:43:00,
2013-11-03 10:53:00,48.0,37.0,30.30,SE,133,0.0,0.0,65,0.00,,,0.00,,2013-11-03 16:53:00,
2013-11-03 11:23:00,50.0,38.0,30.29,ESE,123,0.0,0.0,62,0.00,,,0.00,,2013-11-03 17:23:00,
2013-11-03 11:43:00,49.0,37.0,30.29,SE,126,0.0,0.0,64,0.00,,,0.00,,2013-11-03 17:43:00,
2013-11-03 11:52:00,50.0,38.0,30.28,ESE,121,0.0,0.0,64,0.00,,,0.00,,2013-11-03 17:52:00,
2013-11-03 12:23:00,51.0,36.0,30.28,SSE,167,0.0,0.0,56,0.00,,,0.00,,2013-11-03 18:23:00,
2013-11-03 12:42:00,51.0,36.0,30.27,SE,143,0.0,0.0,57,0.00,,,0.00,,2013-11-03 18:42:00,
2013-11-03 12:52:00,52.0,36.0,30.27,South,189,0.0,0.0,54,0.00,,,0.00,,2013-11-03 18:52:00,
2013-11-03 13:22:00,52.0,34.0,30.25,SE,142,0.0,0.0,51,0.00,,,0.00,,2013-11-03 19:22:00,
2013-11-03 13:42:00,52.0,35.0,30.25,SE,132,0.0,0.0,52,0.00,,,0.00,,2013-11-03 19:42:00,
2013-11-03 13:53:00,52.0,35.0,30.24,SSE,150,0.0,0.0,53,0.00,,,0.00,,2013-11-03 19:53:00,
2013-11-03 14:22:00,53.0,36.0,30.24,ESE,123,0.0,0.0,52,0.00,,,0.00,,2013-11-03 20:22:00,
2013-11-03 14:52:00,53.0,36.0,30.24,SSE,151,0.0,0.0,52,0.00,,,0.00,,2013-11-03 20:52:00,
2013-11-03 15:22:00,53.0,36.0,30.24,SE,138,0.0,0.0,53,0.00,,,0.00,,2013-11-03 21:22:00,
2013-11-03 15:43:00,53.0,36.0,30.24,SE,142,0.0,0.0,53,0.00,,,0.00,,2013-11-03 21:43:00,
2013-11-03 15:54:00,52.0,36.0,30.24,SE,144,0.0,0.0,54,0.00,,,0.00,,2013-11-03 21:54:00,
2013-11-03 16:22:00,51.0,36.0,30.23,SE,130,0.0,0.0,56,0.00,,,0.00,,2013-11-03 22:22:00,
2013-11-03 16:43:00,50.0,37.0,30.22,SE,127,0.0,0.0,60,0.00,,,0.00,,2013-11-03 22:43:00,
2013-11-03 16:52:00,48.0,36.0,30.22,SE,126,0.0,0.0,63,0.00,,,0.00,,2013-11-03 22:52:00,
2013-11-03 17:23:00,46.0,36.0,30.23,SE,126,0.0,0.0,67,0.00,,,0.00,,2013-11-03 23:23:00,
2013-11-03 17:42:00,45.0,35.0,30.23,SE,126,0.0,0.0,69,0.00,,,0.00,,2013-11-03 23:42:00,
2013-11-03 17:53:00,44.0,35.0,30.23,SE,126,0.0,0.0,70,0.00,,,0.00,,2013-11-03 23:53:00,
2013-11-03 18:22:00,43.0,35.0,30.23,SE,126,0.0,0.0,72,0.00,,,0.00,,2013-11-04 00:22:00,
2013-11-03 18:42:00,43.0,35.0,30.23,SE,126,0.0,0.0,73,0.00,,,0.00,,2013-11-04 00:42:00,
2013-11-03 18:52:00,42.0,34.0,30.24,SE,126,0.0,0.0,74,0.00,,,0.00,,2013-11-04 00:52:00,
2013-11-03 19:22:00,42.0,35.0,30.24,SE,128,0.0,0.0,77,0.00,,,0.00,,2013-11-04 01:22:00,
2013-11-03 19:52:00,42.0,35.0,30.24,SE,132,0.0,0.0,76,0.00,,,0.00,,2013-11-04 01:52:00,
2013-11-03 20:22:00,40.0,34.0,30.25,SE,131,0.0,0.0,79,0.00,,,0.00,,2013-11-04 02:22:00,
2013-11-03 20:42:00,40.0,35.0,30.24,SE,131,0.0,0.0,81,0.00,,,0.00,,2013-11-04 02:42:00,
2013-11-03 20:52:00,40.0,35.0,30.25,SE,128,0.0,0.0,81,0.00,,,0.00,,2013-11-04 02:52:00,
2013-11-03 21:21:00,41.0,36.0,30.25,SE,126,0.0,0.0,81,0.00,,,0.00,,2013-11-04 03:21:00,
2013-11-03 21:34:00,41.0,36.0,30.25,SE,126,0.0,0.0,81,0.00,,,0.00,,2013-11-04 03:34:00,
2013-11-03 21:44:00,41.0,36.0,30.25,SE,126,0.0,0.0,81,0.00,,,0.00,,2013-11-04 03:44:00,
2013-11-03 21:54:00,41.0,36.0,30.24,ESE,121,0.0,0.0,82,0.00,,,0.00,,2013-11-04 03:54:00,
2013-11-03 22:24:00,42.0,36.0,30.24,SE,124,0.0,0.0,80,0.00,,,0.00,,2013-11-04 04:24:00,
2013-11-03 22:43:00,41.0,35.0,30.24,ESE,123,0.0,0.0,80,0.00,,,0.00,,2013-11-04 04:43:00,
2013-11-03 22:52:00,41.0,36.0,30.25,ESE,123,0.0,0.0,81,0.00,,,0.00,,2013-11-04 04:52:00,
2013-11-03 23:23:00,41.0,36.0,30.25,SE,128,0.0,0.0,81,0.00,,,0.00,,2013-11-04 05:23:00,
2013-11-03 23:44:00,43.0,36.0,30.24,SE,124,0.0,0.0,77,0.00,,,0.00,,2013-11-04 05:44:00,
2013-11-03 23:53:00,42.0,35.0,30.24,ESE,123,0.0,0.0,77,0.00,,,0.00,,2013-11-04 05:53:00,